When you browse on this site, cookies collect data to enhance your experience and personalize the content and advertising you see.
Visit our Privacy Policy to learn more. By continuing to use the site, you agree to this use of cookies and data.
  • In Hungary
  • List of Countries
  • For 7 days
  • Water Temperature
  • Weather Map
  • News
  • Weather Widgets
  • user-avatar
    Login

    Hourly Weather Čaška

    Today, 14 November, Thursday

    Time Temperature Precipitation Wind Pressure Humidity
    00:00 +12°C° 0 mm 1 mps 722 mmHg 90%
    01:00 +12°C° 0 mm 1 mps 722 mmHg 91%
    02:00 +12°C° 0 mm 1 mps 722 mmHg 91%
    03:00 +12°C° 0 mm 1 mps 722 mmHg 91%
    04:00 +12°C° 0 mm 1 mps 722 mmHg 91%
    05:00 +11°C° 0 mm 0 mps 722 mmHg 91%
    06:00 +11°C° 0 mm 0 mps 722 mmHg 91%
    07:00 +11°C° 0 mm 0 mps 722 mmHg 91%
    08:00 +12°C° 0 mm 0 mps 722 mmHg 86%
    09:00 +13°C° 0 mm 0 mps 723 mmHg 81%
    10:00 +14°C° 0 mm 0 mps 723 mmHg 76%
    11:00 +15°C° 0 mm 0 mps 723 mmHg 73%
    12:00 +18°C° 0 mm 1 mps 722 mmHg 70%
    13:00 +18°C° 0 mm 1 mps 722 mmHg 67%
    14:00 +16°C° 0 mm 1 mps 722 mmHg 71%
    15:00 +15°C° 0 mm 0 mps 722 mmHg 74%
    16:00 +14°C° 0 mm 0 mps 722 mmHg 78%
    17:00 +13°C° 0.1 mm 0 mps 722 mmHg 81%
    18:00 +13°C° 0.1 mm 0 mps 722 mmHg 83%
    19:00 +12°C° 0.1 mm 0 mps 723 mmHg 86%
    20:00 +12°C° 0 mm 0 mps 723 mmHg 86%
    21:00 +12°C° 0 mm 0 mps 723 mmHg 87%
    22:00 +11°C° 0 mm 0 mps 724 mmHg 87%
    23:00 +11°C° 0 mm 0 mps 724 mmHg 88%

    Tomorrow, 15 November, Friday

    Time Temperature Precipitation Wind Pressure Humidity
    00:00 +11°C° 0 mm 0 mps 724 mmHg 88%
    01:00 +11°C° 0 mm 0 mps 724 mmHg 89%
    02:00 +10°C° 0 mm 0 mps 724 mmHg 89%
    03:00 +10°C° 0 mm 0 mps 725 mmHg 90%
    04:00 +10°C° 0 mm 0 mps 725 mmHg 90%
    05:00 +10°C° 0 mm 0 mps 725 mmHg 90%
    06:00 +10°C° 0 mm 0 mps 726 mmHg 90%
    07:00 +11°C° 0 mm 1 mps 726 mmHg 90%
    08:00 +12°C° 0 mm 1 mps 726 mmHg 83%
    09:00 +14°C° 0 mm 1 mps 727 mmHg 75%
    10:00 +16°C° 0 mm 1 mps 727 mmHg 68%
    11:00 +16°C° 0 mm 1 mps 727 mmHg 64%
    12:00 +17°C° 0 mm 2 mps 727 mmHg 59%
    13:00 +18°C° 0 mm 2 mps 727 mmHg 54%
    14:00 +17°C° 0 mm 2 mps 727 mmHg 58%
    15:00 +16°C° 0 mm 2 mps 727 mmHg 63%
    16:00 +15°C° 0 mm 2 mps 727 mmHg 67%
    17:00 +15°C° 0 mm 2 mps 727 mmHg 70%
    18:00 +14°C° 0 mm 2 mps 728 mmHg 72%
    19:00 +13°C° 0 mm 1 mps 728 mmHg 75%
    20:00 +13°C° 0 mm 1 mps 728 mmHg 78%
    21:00 +12°C° 0 mm 1 mps 729 mmHg 81%
    22:00 +12°C° 0 mm 1 mps 729 mmHg 84%
    23:00 +12°C° 0 mm 1 mps 729 mmHg 85%

    Day after tomorrow, 16 November, Saturday

    Time Temperature Precipitation Wind Pressure Humidity
    00:00 +11°C° 0 mm 1 mps 729 mmHg 87%
    01:00 +11°C° 0 mm 1 mps 729 mmHg 88%
    02:00 +11°C° 0 mm 1 mps 729 mmHg 89%
    03:00 +11°C° 0 mm 1 mps 729 mmHg 89%
    04:00 +11°C° 0 mm 1 mps 729 mmHg 90%
    05:00 +11°C° 0 mm 1 mps 729 mmHg 90%
    06:00 +11°C° 0 mm 1 mps 730 mmHg 89%
    07:00 +10°C° 0 mm 0 mps 730 mmHg 89%
    08:00 +12°C° 0 mm 1 mps 730 mmHg 83%
    09:00 +14°C° 0 mm 1 mps 730 mmHg 78%
    10:00 +15°C° 0 mm 1 mps 730 mmHg 72%
    11:00 +16°C° 0 mm 1 mps 730 mmHg 68%
    12:00 +16°C° 0 mm 1 mps 730 mmHg 65%
    13:00 +18°C° 0 mm 1 mps 729 mmHg 61%
    14:00 +16°C° 0 mm 1 mps 729 mmHg 66%
    15:00 +15°C° 0 mm 1 mps 729 mmHg 70%
    16:00 +14°C° 0 mm 1 mps 729 mmHg 75%
    17:00 +14°C° 0 mm 1 mps 729 mmHg 77%
    18:00 +13°C° 0 mm 1 mps 729 mmHg 79%
    19:00 +13°C° 0 mm 1 mps 729 mmHg 82%
    20:00 +12°C° 0 mm 1 mps 729 mmHg 83%
    21:00 +12°C° 0 mm 1 mps 729 mmHg 84%
    22:00 +12°C° 0 mm 1 mps 729 mmHg 86%
    23:00 +12°C° 0 mm 1 mps 729 mmHg 86%

    17 November, Sunday

    Time Temperature Precipitation Wind Pressure Humidity
    00:00 +11°C° 0 mm 1 mps 729 mmHg 86%
    01:00 +11°C° 0 mm 1 mps 729 mmHg 87%
    02:00 +11°C° 0 mm 1 mps 728 mmHg 87%
    03:00 +11°C° 0 mm 1 mps 728 mmHg 87%
    04:00 +11°C° 0 mm 1 mps 728 mmHg 87%
    05:00 +11°C° 0 mm 1 mps 728 mmHg 86%
    06:00 +11°C° 0 mm 1 mps 728 mmHg 84%
    07:00 +11°C° 0 mm 1 mps 728 mmHg 83%
    08:00 +12°C° 0 mm 1 mps 728 mmHg 77%
    09:00 +14°C° 0 mm 1 mps 728 mmHg 70%
    10:00 +15°C° 0 mm 1 mps 728 mmHg 63%
    11:00 +16°C° 0 mm 2 mps 728 mmHg 59%
    12:00 +17°C° 0 mm 2 mps 727 mmHg 56%
    13:00 +17°C° 0 mm 2 mps 727 mmHg 52%
    14:00 +17°C° 0 mm 2 mps 727 mmHg 56%
    15:00 +16°C° 0 mm 2 mps 727 mmHg 60%
    16:00 +15°C° 0 mm 2 mps 726 mmHg 65%
    17:00 +14°C° 0 mm 2 mps 726 mmHg 69%
    18:00 +13°C° 0 mm 2 mps 726 mmHg 73%
    19:00 +13°C° 0 mm 2 mps 726 mmHg 77%
    20:00 +12°C° 0 mm 2 mps 726 mmHg 81%
    21:00 +12°C° 0 mm 2 mps 726 mmHg 84%
    22:00 +10°C° 0 mm 2 mps 726 mmHg 87%
    23:00 +10°C° 0 mm 2 mps 726 mmHg 89%

    18 November, Monday

    Time Temperature Precipitation Wind Pressure Humidity
    00:00 +10°C° 0 mm 2 mps 726 mmHg 90%
    01:00 +10°C° 0 mm 2 mps 725 mmHg 92%
    02:00 +10°C° 0 mm 2 mps 725 mmHg 92%
    03:00 +9°C° 0 mm 2 mps 725 mmHg 93%
    04:00 +10°C° 0 mm 1 mps 725 mmHg 93%
    05:00 +10°C° 0.1 mm 1 mps 726 mmHg 92%
    06:00 +11°C° 0.1 mm 1 mps 726 mmHg 92%
    07:00 +10°C° 0.1 mm 0 mps 726 mmHg 91%
    08:00 +11°C° 0.4 mm 0 mps 727 mmHg 89%
    09:00 +11°C° 0.4 mm 0 mps 727 mmHg 87%
    10:00 +12°C° 0.4 mm 0 mps 727 mmHg 85%
    11:00 +12°C° 0.4 mm 0 mps 727 mmHg 84%
    12:00 +14°C° 0.4 mm 1 mps 727 mmHg 83%
    13:00 +14°C° 0.4 mm 1 mps 726 mmHg 82%
    14:00 +14°C° 0.1 mm 1 mps 726 mmHg 84%
    15:00 +13°C° 0.1 mm 1 mps 727 mmHg 87%
    16:00 +12°C° 0.1 mm 0 mps 727 mmHg 89%
    17:00 +11°C° 0 mm 0 mps 727 mmHg 90%
    18:00 +11°C° 0 mm 0 mps 727 mmHg 90%
    19:00 +10°C° 0 mm 0 mps 727 mmHg 91%
    20:00 +10°C° 0 mm 0 mps 727 mmHg 91%
    21:00 +10°C° 0 mm 0 mps 728 mmHg 92%
    22:00 +10°C° 0 mm 0 mps 728 mmHg 92%
    23:00 +10°C° 0 mm 0 mps 728 mmHg 92%

    19 November, Tuesday

    Time Temperature Precipitation Wind Pressure Humidity
    00:00 +10°C° 0 mm 0 mps 728 mmHg 93%
    01:00 +10°C° 0 mm 0 mps 727 mmHg 93%
    02:00 +9°C° 0 mm 0 mps 727 mmHg 93%
    03:00 +9°C° 0 mm 0 mps 727 mmHg 93%
    04:00 +9°C° 0 mm 0 mps 727 mmHg 92%
    05:00 +10°C° 0 mm 0 mps 727 mmHg 92%
    06:00 +10°C° 0 mm 0 mps 727 mmHg 92%
    07:00 +10°C° 0 mm 0 mps 727 mmHg 92%
    08:00 +11°C° 0 mm 0 mps 727 mmHg 87%
    09:00 +12°C° 0 mm 0 mps 727 mmHg 83%
    10:00 +13°C° 0 mm 0 mps 727 mmHg 78%
    11:00 +15°C° 0.1 mm 1 mps 727 mmHg 74%
    12:00 +15°C° 0.1 mm 1 mps 726 mmHg 69%
    13:00 +16°C° 0.1 mm 2 mps 725 mmHg 64%
    14:00 +15°C° 0.1 mm 1 mps 725 mmHg 68%
    15:00 +15°C° 0.1 mm 1 mps 725 mmHg 71%
    16:00 +14°C° 0.1 mm 1 mps 725 mmHg 75%
    17:00 +13°C° 0.1 mm 1 mps 725 mmHg 76%
    18:00 +12°C° 0.1 mm 1 mps 726 mmHg 77%
    19:00 +11°C° 0.1 mm 0 mps 726 mmHg 78%
    20:00 +12°C° 0.1 mm 1 mps 726 mmHg 78%
    21:00 +11°C° 0.1 mm 1 mps 726 mmHg 79%
    22:00 +11°C° 0.1 mm 1 mps 726 mmHg 80%
    23:00 +11°C° 0 mm 1 mps 726 mmHg 81%
    Show more